[[{"header":{"parameterUnit":"m.s-1","parameterCategory":1,"la1":30.2991,"la2":30.254,"lo1":-89.0895,"lo2":-89.0444,"dy":0.0017,"dx":0.0017,"nx":28,"ny":28,"refTime":"2025-08-23T09:00:00:Z","depth":0,"parameterNumber":2,"parameterNumberName":"U-component_of_WINDS"},"data":[0,0,0,0,0,0,0,0,0,0,0,0,0,0,0,0,0,0,0,0,0,0,0,0,0,0,0,0,0,0,0,0,0,0,0,0,0,0,0,0,0,0,0,0,0,0,0,0,0,0,0,0,0,0,0,0,0,0,2.3148,2.3149,0,2.3227,2.3228,2.3229,2.3265,2.3265,2.3265,2.3265,2.3348,2.335,2.3353,0,0,0,0,0,0,0,0,0,0,0,0,0,2.3031,2.3033,2.3148,2.3149,2.315,2.3227,2.3228,2.3229,2.3265,2.3265,2.3265,2.3265,2.3347,2.335,2.3353,0,0,0,0,0,0,0,0,0,0,0,0,0,2.3093,2.3034,2.3148,2.3177,2.3181,2.3227,2.3228,2.323,2.3265,2.3265,2.3265,2.3265,2.3346,2.335,2.3353,2.3377,0,0,2.3364,2.3365,0,0,0,0,0,0,0,0,2.309,2.3098,2.3172,2.3175,2.3179,2.3236,2.3218,2.3279,2.3265,2.3233,2.3265,2.3265,2.3311,2.3317,2.3333,2.3381,2.3384,2.3364,2.3366,2.3368,2.3368,0,0,0,0,0,0,0,2.3085,2.3094,2.318,2.3173,2.3177,2.3187,2.3196,2.3229,2.3272,2.3236,2.3239,2.3247,2.3313,2.3329,2.3335,2.3386,2.3364,2.3367,2.3369,2.337,2.3459,2.3459,0,0,0,0,0,0,2.3076,2.309,2.3177,2.3182,2.3133,2.319,2.3199,2.3218,2.3272,2.328,2.3247,2.3249,2.3323,2.3331,2.3338,2.337,2.3367,2.3371,2.3373,2.3459,2.3459,2.3459,0,0,0,0,0,0,2.3073,2.3083,2.3174,2.3137,2.3149,2.3192,2.3212,2.322,2.3236,2.328,2.3288,2.3256,2.3324,2.3333,2.3367,2.3373,2.3372,2.3375,2.3458,2.3459,2.3459,2.3434,0,0,0,0,0,0,2.307,2.3082,2.3091,2.3137,2.3151,2.3201,2.3213,2.3221,2.3241,2.3244,2.329,2.3298,2.3324,2.3362,2.3371,2.3378,2.3378,2.3458,2.3459,2.3459,2.3434,2.3433,2.3432,0,0,0,0,0,2.3065,2.3081,2.3091,2.3101,2.3163,2.3201,2.3209,2.3238,2.3242,2.3251,2.328,2.3297,2.3371,2.3365,2.3375,2.3384,2.3458,2.3458,2.3459,2.3435,2.3433,2.3432,0,0,0,0,0,0,2.3034,2.3087,2.3099,2.313,2.316,2.3207,2.322,2.3236,2.3267,2.3268,2.3304,2.3314,2.3345,2.3368,2.336,2.341,2.3416,2.3419,2.3394,2.3393,2.3392,2.3386,2.3381,0,0,0,0,0,2.3031,2.3057,2.3102,2.3125,2.3139,2.3177,2.3195,2.3214,2.3248,2.3262,2.3293,2.3326,2.3357,2.3376,2.3407,2.3438,2.3449,2.3449,2.3448,2.3447,2.3449,2.3468,2.3469,2.3461,2.3461,2.3461,0,0,2.3024,2.3057,2.3071,2.3119,2.3145,2.3172,2.3188,2.3215,2.3236,2.3266,2.33,2.3324,2.3363,2.3396,2.3412,2.3416,2.3454,2.3448,2.3447,2.3449,2.3469,2.3469,2.347,2.3462,2.3462,2.3462,0,0,2.3026,2.3053,2.3075,2.3101,2.314,2.3165,2.3171,2.3215,2.3232,2.3267,2.329,2.3316,2.3368,2.3396,2.3416,2.343,2.3446,2.3439,2.3434,2.3452,2.3453,2.3453,2.3459,2.346,2.3441,2.3441,2.3441,0,2.3013,2.3054,2.3084,2.3111,2.3132,2.316,2.3183,2.3208,2.3255,2.327,2.3274,2.3341,2.3369,2.3409,2.3412,2.3428,2.3436,2.3433,2.345,2.3451,2.3452,2.3457,2.3459,2.3439,2.344,2.344,2.344,0,2.3036,2.3064,2.3077,2.3122,2.3145,2.317,2.3205,2.3225,2.3243,2.3268,2.3303,2.3339,2.3378,2.3389,2.3407,2.3431,2.3433,2.3443,2.3449,2.3451,2.3457,2.3459,2.3438,2.3438,2.3439,2.3439,0,0,2.3019,2.3082,2.3086,2.3107,2.3153,2.3176,2.3203,2.324,2.3257,2.3289,2.3313,2.3357,2.3367,2.3391,2.3413,2.3428,2.3438,2.3437,2.3438,2.3436,2.3468,2.346,2.3462,2.3449,2.345,2.345,2.3465,0,2.3027,2.3075,2.3104,2.3141,2.3168,2.3196,2.322,2.3251,2.3275,2.3303,2.333,2.3361,2.3371,2.3386,2.3403,2.3433,2.3444,2.3432,2.3472,2.3473,2.3461,2.3465,2.3456,2.3468,2.3467,2.3467,2.3468,0,2.3043,2.3074,2.3113,2.3158,2.317,2.319,2.3228,2.3253,2.329,2.3307,2.3334,2.3356,2.3386,2.3391,2.3434,2.3425,2.3443,2.3461,2.3462,2.3467,2.347,2.3469,2.3472,2.3474,2.3471,2.3471,2.3471,0,2.3027,2.3079,2.311,2.3127,2.3179,2.3193,2.3216,2.3253,2.3274,2.3307,2.3321,2.3358,2.3378,2.3406,2.3438,2.3438,2.3478,2.3485,2.3494,2.3493,2.35,2.3499,2.3506,2.3512,2.3512,2.3512,2.3512,0,2.3033,2.3056,2.3103,2.3122,2.3149,2.3183,2.3209,2.3234,2.3267,2.3292,2.3319,2.3342,2.3383,2.3411,2.3436,2.3469,2.3478,2.3493,2.3499,2.349,2.3488,2.3503,2.3503,2.3513,2.3513,2.3513,2.3513,0,2.3019,2.3052,2.3087,2.3134,2.3146,2.3164,2.3205,2.3225,2.3251,2.3282,2.3292,2.3333,2.3368,2.3403,2.345,2.3467,2.3499,2.3508,2.3486,2.349,2.3497,2.3496,2.3513,2.3517,2.352,2.352,2.352,0,2.3021,2.3039,2.3088,2.3106,2.3128,2.3157,2.3179,2.3214,2.3235,2.328,2.3294,2.3331,2.3362,2.3417,2.3452,2.3489,2.3499,2.3502,2.3504,2.3495,2.3499,2.3498,2.35,2.3501,2.3501,2.3501,2.3501,0,2.302,2.3035,2.3065,2.3101,2.3126,2.3156,2.3187,2.3201,2.3242,2.3265,2.3301,2.3325,2.3374,2.341,2.3451,2.3476,2.3495,2.35,2.3504,2.3495,2.3481,2.3489,2.3484,2.3499,2.3499,2.3499,2.3499,2.35,2.3014,2.3032,2.3069,2.3102,2.3129,2.3158,2.3179,2.3208,2.3238,2.328,2.3299,2.3335,2.3373,2.343,2.3454,2.3484,2.3489,2.3495,2.3496,2.3497,2.3495,2.3477,2.3492,2.3492,2.3492,2.3492,2.3492,0,2.3015,2.304,2.307,2.3113,2.3139,2.3155,2.319,2.3211,2.3243,2.3276,2.3306,2.3348,2.3384,2.3422,2.3461,2.3477,2.3487,2.3486,2.3485,2.3491,2.3488,2.3481,2.3478,2.3478,2.3478,2.3478,2.3478,2.3478,2.3018,2.3049,2.307,2.3115,2.3141,2.3176,2.3195,2.3222,2.3249,2.3295,2.3324,2.3349,2.3385,2.3426,2.3461,2.3471,2.3484,2.348,2.3493,2.349,2.3491,2.3492,2.3485,2.3483,2.3483,2.3494,2.3494,2.3494]},{"header":{"parameterUnit":"m.s-1","parameterCategory":1,"la1":30.2991,"la2":30.254,"lo1":-89.0895,"lo2":-89.0444,"dy":0.0017,"dx":0.0017,"nx":28,"ny":28,"refTime":"2025-08-23T09:00:00:Z","depth":0,"parameterNumber":3,"parameterNumberName":"V-component_of_WINDS"},"data":[0,0,0,0,0,0,0,0,0,0,0,0,0,0,0,0,0,0,0,0,0,0,0,0,0,0,0,0,0,0,0,0,0,0,0,0,0,0,0,0,0,0,0,0,0,0,0,0,0,0,0,0,0,0,0,0,0,0,-0.5739,-0.5739,0,-0.5743,-0.5743,-0.5743,-0.5788,-0.5789,-0.579,-0.5791,-0.5795,-0.5794,-0.5793,0,0,0,0,0,0,0,0,0,0,0,0,0,-0.5771,-0.577,-0.5739,-0.5739,-0.5739,-0.5743,-0.5743,-0.5743,-0.5787,-0.5789,-0.579,-0.5791,-0.5795,-0.5794,-0.5793,0,0,0,0,0,0,0,0,0,0,0,0,0,-0.5764,-0.5769,-0.5739,-0.5761,-0.5764,-0.5743,-0.5743,-0.5743,-0.5787,-0.5789,-0.579,-0.5792,-0.5795,-0.5794,-0.5792,-0.575,0,0,-0.5788,-0.5788,0,0,0,0,0,0,0,0,-0.5764,-0.5763,-0.5758,-0.576,-0.5762,-0.5766,-0.5755,-0.5745,-0.5787,-0.5778,-0.5791,-0.5793,-0.5784,-0.5783,-0.578,-0.575,-0.575,-0.5788,-0.5787,-0.5787,-0.5786,0,0,0,0,0,0,0,-0.5765,-0.5763,-0.574,-0.5758,-0.576,-0.5772,-0.5773,-0.5754,-0.5771,-0.5779,-0.5782,-0.5782,-0.5785,-0.5782,-0.5781,-0.575,-0.5788,-0.5787,-0.5786,-0.5785,-0.5689,-0.5687,0,0,0,0,0,0,-0.5762,-0.5763,-0.574,-0.574,-0.5767,-0.577,-0.5771,-0.5763,-0.5772,-0.5775,-0.5781,-0.5784,-0.5783,-0.5782,-0.5781,-0.5734,-0.5787,-0.5785,-0.5784,-0.569,-0.5688,-0.5686,0,0,0,0,0,0,-0.5762,-0.5759,-0.574,-0.5752,-0.5751,-0.5768,-0.5759,-0.5762,-0.5759,-0.5773,-0.5776,-0.5774,-0.5785,-0.5783,-0.5758,-0.5735,-0.5785,-0.5783,-0.5692,-0.569,-0.5687,-0.5639,0,0,0,0,0,0,-0.5763,-0.5759,-0.5743,-0.5752,-0.575,-0.5716,-0.5757,-0.5761,-0.5757,-0.5761,-0.5768,-0.577,-0.5786,-0.576,-0.5757,-0.5734,-0.5782,-0.5694,-0.5691,-0.5688,-0.5642,-0.5635,-0.5628,0,0,0,0,0,-0.5764,-0.5728,-0.5742,-0.5739,-0.573,-0.5715,-0.5714,-0.5733,-0.5754,-0.5739,-0.5748,-0.577,-0.5738,-0.5757,-0.5754,-0.573,-0.5696,-0.5692,-0.5688,-0.5646,-0.5636,-0.5628,0,0,0,0,0,0,-0.5715,-0.573,-0.5745,-0.5711,-0.5711,-0.5722,-0.5703,-0.5722,-0.5716,-0.572,-0.5744,-0.5745,-0.5717,-0.5721,-0.5742,-0.5691,-0.5721,-0.5716,-0.569,-0.5681,-0.5674,-0.5674,-0.5781,0,0,0,0,0,-0.5701,-0.5687,-0.57,-0.5669,-0.5669,-0.5686,-0.568,-0.5694,-0.5696,-0.5696,-0.5704,-0.5704,-0.5695,-0.5688,-0.5679,-0.5643,-0.5646,-0.5625,-0.5618,-0.5612,-0.5608,-0.5592,-0.5584,-0.5674,-0.5674,-0.5674,0,0,-0.567,-0.5676,-0.5666,-0.566,-0.5662,-0.5648,-0.5685,-0.5669,-0.5659,-0.5694,-0.5671,-0.5677,-0.5679,-0.5649,-0.5636,-0.5651,-0.5584,-0.5607,-0.5602,-0.5602,-0.5587,-0.5579,-0.5571,-0.5671,-0.5671,-0.5672,0,0,-0.5608,-0.561,-0.5586,-0.5588,-0.5591,-0.5603,-0.5597,-0.5606,-0.5611,-0.5589,-0.5615,-0.5604,-0.5586,-0.5588,-0.5586,-0.5527,-0.5548,-0.5523,-0.5487,-0.547,-0.5463,-0.5457,-0.5438,-0.5431,-0.5519,-0.5519,-0.5519,0,-0.557,-0.555,-0.5571,-0.5554,-0.5551,-0.5582,-0.5558,-0.5559,-0.5559,-0.5557,-0.5574,-0.5554,-0.5557,-0.5529,-0.5515,-0.5512,-0.5507,-0.5523,-0.5463,-0.5457,-0.5451,-0.5434,-0.5426,-0.5516,-0.5517,-0.5517,-0.5517,0,-0.5504,-0.549,-0.547,-0.5471,-0.5466,-0.5445,-0.5463,-0.5456,-0.5471,-0.5481,-0.546,-0.5465,-0.546,-0.5454,-0.5468,-0.5428,-0.5438,-0.5458,-0.5489,-0.544,-0.5424,-0.5417,-0.5512,-0.5513,-0.5514,-0.5515,0,0,-0.5411,-0.5425,-0.5418,-0.542,-0.5426,-0.5416,-0.5397,-0.5393,-0.5387,-0.5386,-0.5372,-0.5357,-0.5377,-0.5375,-0.539,-0.5375,-0.5331,-0.5398,-0.5398,-0.5387,-0.529,-0.5277,-0.5268,-0.5344,-0.5343,-0.5342,-0.5291,0,-0.5354,-0.5323,-0.5342,-0.5309,-0.5297,-0.5328,-0.5312,-0.5315,-0.5324,-0.5316,-0.5326,-0.5317,-0.5342,-0.5342,-0.5328,-0.5339,-0.5312,-0.5343,-0.5333,-0.5333,-0.5334,-0.5259,-0.5244,-0.5195,-0.5285,-0.5284,-0.5283,0,-0.5282,-0.528,-0.5245,-0.5257,-0.5253,-0.5238,-0.5237,-0.5228,-0.5232,-0.524,-0.5239,-0.5259,-0.5242,-0.5272,-0.5251,-0.5271,-0.5268,-0.5273,-0.5272,-0.5273,-0.5306,-0.526,-0.518,-0.5174,-0.5273,-0.5273,-0.5274,0,-0.5221,-0.5208,-0.5187,-0.5187,-0.5199,-0.5189,-0.5193,-0.5199,-0.5196,-0.5195,-0.5193,-0.519,-0.5188,-0.5185,-0.5204,-0.5223,-0.5181,-0.5211,-0.5189,-0.5188,-0.5179,-0.518,-0.5099,-0.5174,-0.5174,-0.5174,-0.5175,0,-0.5155,-0.5133,-0.516,-0.5147,-0.5125,-0.5147,-0.5124,-0.5132,-0.5138,-0.5127,-0.5153,-0.5143,-0.5167,-0.5159,-0.5173,-0.5155,-0.5154,-0.5161,-0.5165,-0.516,-0.5159,-0.5159,-0.5164,-0.5173,-0.5173,-0.5173,-0.5174,0,-0.5083,-0.51,-0.5079,-0.5093,-0.5096,-0.5079,-0.5091,-0.508,-0.5091,-0.5078,-0.5077,-0.5095,-0.5088,-0.5106,-0.5101,-0.511,-0.5085,-0.5094,-0.5084,-0.5087,-0.5064,-0.5067,-0.4982,-0.4974,-0.5052,-0.5051,-0.505,0,-0.5041,-0.5026,-0.5038,-0.5033,-0.5037,-0.5028,-0.5026,-0.5048,-0.5044,-0.5049,-0.5038,-0.5033,-0.5031,-0.5018,-0.5032,-0.5029,-0.5039,-0.501,-0.5039,-0.5034,-0.5041,-0.5043,-0.5042,-0.5004,-0.5003,-0.5002,-0.5002,0,-0.4966,-0.4975,-0.4971,-0.4969,-0.4966,-0.4966,-0.4967,-0.4962,-0.4986,-0.498,-0.4974,-0.4972,-0.4968,-0.4964,-0.4964,-0.497,-0.499,-0.4992,-0.4987,-0.4982,-0.4978,-0.4983,-0.5069,-0.4994,-0.4995,-0.4996,-0.4996,-0.4996,-0.4909,-0.4898,-0.4906,-0.49,-0.4904,-0.4905,-0.4897,-0.4908,-0.4903,-0.4902,-0.4915,-0.4906,-0.4913,-0.4916,-0.4919,-0.4914,-0.4927,-0.4919,-0.4918,-0.4916,-0.4913,-0.4978,-0.4913,-0.4914,-0.4914,-0.4914,-0.4914,0,-0.4837,-0.4844,-0.4839,-0.4841,-0.4837,-0.4857,-0.486,-0.4856,-0.4848,-0.4853,-0.485,-0.4844,-0.484,-0.4854,-0.4852,-0.4845,-0.4855,-0.4844,-0.4846,-0.4847,-0.49,-0.4905,-0.4837,-0.4837,-0.4837,-0.4837,-0.4837,-0.4837,-0.4799,-0.4782,-0.4793,-0.4778,-0.4785,-0.4777,-0.4778,-0.478,-0.4784,-0.4776,-0.4774,-0.4783,-0.4791,-0.4791,-0.4789,-0.4793,-0.4793,-0.4779,-0.4787,-0.4836,-0.4843,-0.4851,-0.4856,-0.4778,-0.4778,-0.4735,-0.4735,-0.4735]}]]